This is the latest recevied weather packets stored in our database for station/object DK6GC-10. If no packets are shown the sender has not sent any weather packets the latest 10 day(s).
| Time | Temp. | Humidity | Pressure | Rain* | Wind** | Luminosity | Snow |
|---|---|---|---|---|---|---|---|
| 1777812321 | 25.56° C | 38% | 1014.8 hPa | - | - | - | - |
| 1777811421 | 25.56° C | 35% | 1014.9 hPa | - | - | - | - |
| 1777810520 | 26.11° C | 36% | 1014.9 hPa | - | - | - | - |
| 1777809625 | 25° C | 41% | 1014.9 hPa | - | - | - | - |
| 1777808725 | 24.44° C | 45% | 1015.2 hPa | - | - | - | - |
| 1777807824 | 23.89° C | 42% | 1015.2 hPa | - | - | - | - |
| 1777806924 | 24.44° C | 48% | 1015.2 hPa | - | - | - | - |
| 1777806024 | 23.89° C | 41% | 1015.3 hPa | - | - | - | - |
| 1777805124 | 23.89° C | 45% | 1015.2 hPa | - | - | - | - |
| 1777804224 | 23.89° C | 46% | 1015.2 hPa | - | - | - | - |
| 1777803323 | 23.89° C | 44% | 1015.7 hPa | - | - | - | - |
| 1777802423 | 22.22° C | 50% | 1015.9 hPa | - | - | - | - |
| 1777801523 | 23.89° C | 51% | 1015.9 hPa | - | - | - | - |
| 1777800623 | 22.78° C | 54% | 1016 hPa | - | - | - | - |
| 1777799723 | 22.22° C | 57% | 1016.1 hPa | - | - | - | - |
| 1777798823 | 21.11° C | 61% | 1016.4 hPa | - | - | - | - |
| 1777797922 | 20.56° C | 65% | 1016.3 hPa | - | - | - | - |
| 1777797022 | 18.89° C | 68% | 1016.4 hPa | - | - | - | - |
| 1777796122 | 18.33° C | 73% | 1016.5 hPa | - | - | - | - |
| 1777795222 | 16.67° C | 74% | 1016.5 hPa | - | - | - | - |
| 1777794322 | 15.56° C | 75% | 1016.6 hPa | - | - | - | - |
| 1777793422 | 15.56° C | 79% | 1016.8 hPa | - | - | - | - |
| 1777792521 | 15° C | 84% | 1016.6 hPa | - | - | - | - |
| 1777791620 | 14.44° C | 85% | 1016.3 hPa | - | - | - | - |
| 1777790720 | 14.44° C | 81% | 1016.7 hPa | - | - | - | - |
* Rain since midnight (hover to see other rain measurements)
** Current wind speed in m/s (hover to see current wind gust speed)